Showing default

IRIDIUM 108, 41924

Orbit data source: Space-Track

IRIDIUM 108, 41924 is a payload satellite owned by Iridium (US) in LEO that was launched on Sat, 14 Jan 2017 UTC via an FALCON 9 launch vehicle from the Air Force Western Test Range (AFWTR). Payloads include a variety of satellites, spacecraft, and rockets equipped with specific instruments for various scientific and technological missions. These include communications satellites like Starlink; space stations such as the ISS; scientific satellites like the Hubble; Earth observation satellites from companies like Planet Labs, Umbra, and HawkEye 360; GPS; miniature CubeSats for education and research; and military/defense satellites.

Loading next visibility...
IRIDIUM 108 details
Identifier
41924, 2017-003H
Orbit
LEO
Last TLE update7 hours ago
Origin
Flag of USIridium (US)
ManufacturerOATK SSG Gilbert
MissionOperational Commercial Communications
Bus & MotorELITEBUS, Unknown motor
Mass860 kg wet, 700 kg dry
Launch date (UTC)
2017-01-14 (8 years ago)
Launch vehicle
FALCON 9
Launch site
Air Force Western Test Range (AFWTR)
Object type
Payload
Rocket body
Debris
Shape & HBRTrap Box + 2 Pan, 9.4 m
Radar Cross Section14.423 m², Large (>1 m²)

Expand to show TLE details & history

TLE from 7 hours ago
0 IRIDIUM 108
1 41924U 17003H   24361.25923780  .00000471  00000-0  16100-3 0  9996
2 41924  86.3962 281.5385 0002075  88.5401 271.6032 14.34213567418008
Epoch: 2024-12-26T06:13Z
Definitive object data (Epoch: 2024-12-26T06:13:18.145Z)
Latitude-0.0001°
Longitude92.97169°
Altitude780.691 km
Speed7.464 km/s
True Right ascension18h 46m 09s
True Declination0° 00' 00"
Sunlit
Object was in daylight at TLE epoch
Visualization TLE readout
Latitude55.30613°
Longitude98.04255°
Altitude785.687 km
Speed7.467 km/s
Apparent Right ascension22h 07m 08s
Apparent Declination14° 44' 00"
Sunlit
Object is in daylight
Visualization observer readout
Local Sidereal Time12:32:13
Azimuth39.446° NE
Elevation-25.776°
Doppler factor1
Orbital elements
Apogee altitude776.13 km
Perigee altitude773.161 km
Semi-major axis7,152.783 km
Eccentricity0.0002075
Inclination86.3962°
RAAN281.5385°
Arg. of periapsis88.5401°
True anomaly271.57943°
Mean anomaly271.6032°
Eccentric anomaly271.59132°
Mean motion3.58782 °/min
BSTAR0.000161
Orbital period100.34 mins
Loading maneuver chart data...
Loading historical data...
Loading historical data...
Loading historical data...
Loading historical data...
Loading historical data...
Loading historical data...
Loading historical data...

IRIDIUM 108 Visibility forecast

Observer location: undefined°, undefined

Span
Click to sort rows by Start time (UTC) header in descending order
Start Az.
Max El. time (UTC)
Max El. Az.
Max El.
End time (UTC)
End Az.
8 mins2024-12-26 19:44:35.192Z194.531° SSW2024-12-26 19:48:35.192Z301.492° NW42.049°2024-12-26 19:52:35.192Z355.357° N
7 mins2024-12-27 06:15:35.192Z30.576° NE2024-12-27 06:18:35.192Z80.042° E26.822°2024-12-27 06:22:35.192Z138.097° SSE
6 mins2024-12-27 07:56:35.192Z320.263° NNW2024-12-27 07:59:35.192Z268.833° W25.368°2024-12-27 08:02:35.192Z225.773° WSW
|